[[{"header":{"parameterUnit":"m.s-1","parameterCategory":1,"la1":30.2991,"la2":30.254,"lo1":-89.0895,"lo2":-89.0444,"dy":0.0017,"dx":0.0017,"nx":28,"ny":28,"refTime":"2025-08-27T21:00:00:Z","depth":0,"parameterNumber":2,"parameterNumberName":"U-component_of_WINDS"},"data":[0,0,0,0,0,0,0,0,0,0,0,0,0,0,0,0,0,0,0,0,0,0,0,0,0,0,0,0,0,0,0,0,0,0,0,0,0,0,0,0,0,0,0,0,0,0,0,0,0,0,0,0,0,0,0,0,0,0,-0.3971,-0.3971,0,-0.4028,-0.4028,-0.4029,-0.4059,-0.4059,-0.4059,-0.4059,-0.4118,-0.412,-0.4121,0,0,0,0,0,0,0,0,0,0,0,0,0,-0.3888,-0.3889,-0.397,-0.3971,-0.3972,-0.4028,-0.4028,-0.4029,-0.4059,-0.4059,-0.4059,-0.4059,-0.4118,-0.412,-0.4122,0,0,0,0,0,0,0,0,0,0,0,0,0,-0.3932,-0.389,-0.397,-0.3993,-0.3996,-0.4028,-0.4028,-0.4029,-0.4059,-0.4059,-0.4059,-0.4059,-0.4117,-0.412,-0.4122,-0.4135,0,0,-0.4129,-0.413,0,0,0,0,0,0,0,0,-0.393,-0.3935,-0.3989,-0.3992,-0.3995,-0.4036,-0.4021,-0.4065,-0.4059,-0.4035,-0.4059,-0.4059,-0.4091,-0.4096,-0.4106,-0.4138,-0.414,-0.4129,-0.4131,-0.4132,-0.4132,0,0,0,0,0,0,0,-0.3927,-0.3933,-0.3993,-0.399,-0.3994,-0.4001,-0.4008,-0.403,-0.4062,-0.4037,-0.404,-0.4046,-0.4093,-0.4104,-0.4108,-0.4141,-0.4129,-0.4131,-0.4133,-0.4133,-0.4187,-0.4187,0,0,0,0,0,0,-0.392,-0.393,-0.3991,-0.3995,-0.3962,-0.4003,-0.401,-0.4023,-0.4062,-0.4068,-0.4046,-0.4047,-0.41,-0.4105,-0.411,-0.4129,-0.4131,-0.4134,-0.4135,-0.4187,-0.4187,-0.4187,0,0,0,0,0,0,-0.3918,-0.3925,-0.3989,-0.3963,-0.3972,-0.4004,-0.4019,-0.4024,-0.4035,-0.4068,-0.4074,-0.4051,-0.41,-0.4107,-0.4129,-0.4131,-0.4135,-0.4137,-0.4187,-0.4187,-0.4187,-0.4165,0,0,0,0,0,0,-0.3915,-0.3924,-0.3929,-0.3963,-0.3973,-0.4006,-0.4019,-0.4025,-0.4039,-0.4041,-0.4075,-0.4081,-0.4101,-0.4125,-0.4131,-0.4134,-0.4139,-0.4187,-0.4187,-0.4187,-0.4166,-0.4164,-0.4163,0,0,0,0,0,-0.3912,-0.3921,-0.3929,-0.3936,-0.398,-0.4006,-0.4012,-0.4035,-0.4039,-0.4045,-0.4066,-0.408,-0.413,-0.4127,-0.4134,-0.4138,-0.4187,-0.4187,-0.4187,-0.4166,-0.4165,-0.4163,0,0,0,0,0,0,-0.3886,-0.3925,-0.3935,-0.3955,-0.3977,-0.4011,-0.4019,-0.4032,-0.4054,-0.4055,-0.4082,-0.409,-0.4109,-0.4126,-0.4122,-0.4153,-0.416,-0.4161,-0.4142,-0.414,-0.4139,-0.4135,-0.4141,0,0,0,0,0,-0.3882,-0.39,-0.3934,-0.3948,-0.3958,-0.3987,-0.3999,-0.4014,-0.4039,-0.4048,-0.4071,-0.4094,-0.4115,-0.4129,-0.415,-0.4168,-0.4176,-0.4174,-0.4173,-0.4172,-0.4173,-0.4185,-0.4184,-0.4187,-0.4187,-0.4187,0,0,-0.3875,-0.3899,-0.3908,-0.3943,-0.3962,-0.398,-0.3994,-0.4013,-0.4027,-0.4051,-0.4073,-0.4091,-0.4119,-0.4139,-0.4149,-0.4153,-0.4174,-0.4172,-0.4171,-0.4173,-0.4185,-0.4184,-0.4184,-0.4187,-0.4187,-0.4187,0,0,-0.3872,-0.3891,-0.3905,-0.3924,-0.3953,-0.3971,-0.3975,-0.4007,-0.402,-0.4043,-0.4061,-0.4079,-0.4114,-0.4133,-0.4148,-0.4152,-0.4165,-0.4158,-0.4151,-0.4162,-0.4162,-0.4162,-0.4164,-0.4164,-0.4159,-0.4159,-0.4159,0,-0.3859,-0.3887,-0.3911,-0.3928,-0.3943,-0.3966,-0.3981,-0.3998,-0.4032,-0.4042,-0.4046,-0.4092,-0.4112,-0.4137,-0.4138,-0.4149,-0.4154,-0.4154,-0.416,-0.416,-0.4161,-0.4163,-0.4164,-0.4158,-0.4158,-0.4158,-0.4158,0,-0.3871,-0.389,-0.3898,-0.393,-0.3946,-0.3962,-0.3989,-0.4002,-0.4016,-0.4034,-0.4058,-0.4083,-0.411,-0.4117,-0.4131,-0.4144,-0.4146,-0.4155,-0.4162,-0.4159,-0.4162,-0.4163,-0.4156,-0.4156,-0.4157,-0.4157,0,0,-0.3852,-0.3898,-0.39,-0.3916,-0.3949,-0.3964,-0.3982,-0.4008,-0.4019,-0.4042,-0.4057,-0.4087,-0.4095,-0.4112,-0.4128,-0.4138,-0.414,-0.4146,-0.4147,-0.4144,-0.4158,-0.4151,-0.4152,-0.4149,-0.415,-0.415,-0.4156,0,-0.3854,-0.3886,-0.3908,-0.3932,-0.395,-0.3972,-0.3987,-0.401,-0.4027,-0.4046,-0.4066,-0.4086,-0.4096,-0.4106,-0.4116,-0.4138,-0.4143,-0.4138,-0.4165,-0.4165,-0.4158,-0.4153,-0.4147,-0.4151,-0.4157,-0.4157,-0.4157,0,-0.386,-0.3882,-0.3908,-0.394,-0.3948,-0.3961,-0.3988,-0.4005,-0.4031,-0.4043,-0.4061,-0.4078,-0.4098,-0.4103,-0.4131,-0.4127,-0.4139,-0.4151,-0.4152,-0.4156,-0.4161,-0.4158,-0.4153,-0.4153,-0.4159,-0.4159,-0.4159,0,-0.3845,-0.3881,-0.3901,-0.3914,-0.3951,-0.396,-0.3976,-0.4002,-0.4017,-0.404,-0.405,-0.4074,-0.4088,-0.4107,-0.413,-0.4132,-0.4156,-0.4163,-0.4167,-0.4167,-0.4172,-0.4171,-0.417,-0.4179,-0.4179,-0.4179,-0.4179,0,-0.3845,-0.386,-0.3895,-0.3908,-0.3925,-0.395,-0.3967,-0.3985,-0.4008,-0.4025,-0.4045,-0.406,-0.409,-0.4109,-0.4127,-0.4148,-0.4154,-0.4165,-0.4169,-0.4163,-0.4162,-0.4172,-0.4172,-0.4179,-0.4179,-0.4179,-0.4179,0,-0.3831,-0.3855,-0.3879,-0.3913,-0.3921,-0.3933,-0.3962,-0.3975,-0.3994,-0.4015,-0.4021,-0.4051,-0.4074,-0.4099,-0.4131,-0.4143,-0.4164,-0.417,-0.4155,-0.4158,-0.4161,-0.416,-0.4166,-0.4168,-0.4175,-0.4175,-0.4175,0,-0.383,-0.3842,-0.3877,-0.389,-0.3905,-0.3925,-0.394,-0.3965,-0.398,-0.4011,-0.402,-0.4045,-0.4067,-0.4103,-0.4128,-0.4152,-0.416,-0.416,-0.4164,-0.4157,-0.4161,-0.416,-0.4161,-0.4159,-0.4159,-0.4159,-0.4159,0,-0.3825,-0.3837,-0.3857,-0.3882,-0.39,-0.3921,-0.3942,-0.3951,-0.3981,-0.3997,-0.4021,-0.4037,-0.407,-0.4095,-0.4122,-0.4139,-0.4154,-0.4157,-0.416,-0.4154,-0.4144,-0.415,-0.4152,-0.4157,-0.4157,-0.4157,-0.4157,-0.4157,-0.3818,-0.383,-0.3857,-0.3879,-0.3898,-0.3918,-0.3932,-0.3953,-0.3974,-0.4002,-0.4016,-0.404,-0.4066,-0.4105,-0.4122,-0.4141,-0.4146,-0.4149,-0.415,-0.415,-0.4149,-0.4141,-0.4146,-0.4146,-0.4146,-0.4146,-0.4146,0,-0.3815,-0.3834,-0.3854,-0.3884,-0.3902,-0.3913,-0.3938,-0.3953,-0.3973,-0.3997,-0.4017,-0.4045,-0.4069,-0.4096,-0.4122,-0.4132,-0.414,-0.4138,-0.4138,-0.4142,-0.4143,-0.4139,-0.4132,-0.4132,-0.4132,-0.4132,-0.4132,-0.4132,-0.3816,-0.3837,-0.3851,-0.3882,-0.3901,-0.3924,-0.3937,-0.3956,-0.3975,-0.4005,-0.4025,-0.4042,-0.4067,-0.4095,-0.4117,-0.4125,-0.4134,-0.413,-0.4139,-0.414,-0.4142,-0.4143,-0.4139,-0.4132,-0.4132,-0.4136,-0.4137,-0.4137]},{"header":{"parameterUnit":"m.s-1","parameterCategory":1,"la1":30.2991,"la2":30.254,"lo1":-89.0895,"lo2":-89.0444,"dy":0.0017,"dx":0.0017,"nx":28,"ny":28,"refTime":"2025-08-27T21:00:00:Z","depth":0,"parameterNumber":3,"parameterNumberName":"V-component_of_WINDS"},"data":[0,0,0,0,0,0,0,0,0,0,0,0,0,0,0,0,0,0,0,0,0,0,0,0,0,0,0,0,0,0,0,0,0,0,0,0,0,0,0,0,0,0,0,0,0,0,0,0,0,0,0,0,0,0,0,0,0,0,0.081,0.0809,0,0.067,0.0669,0.0667,0.0581,0.058,0.058,0.0579,0.0432,0.0428,0.0425,0,0,0,0,0,0,0,0,0,0,0,0,0,0.0998,0.0995,0.081,0.0809,0.0807,0.067,0.0669,0.0667,0.0581,0.058,0.058,0.0579,0.0433,0.0429,0.0425,0,0,0,0,0,0,0,0,0,0,0,0,0,0.0893,0.0995,0.0811,0.0748,0.0741,0.0671,0.0668,0.0666,0.0581,0.058,0.0579,0.0579,0.0434,0.0429,0.0424,0.0405,0,0,0.0408,0.0406,0,0,0,0,0,0,0,0,0.0899,0.0887,0.0759,0.0752,0.0744,0.0642,0.0681,0.0578,0.0581,0.0641,0.0579,0.0579,0.0502,0.0491,0.0466,0.0398,0.0392,0.0408,0.0404,0.0402,0.0401,0,0,0,0,0,0,0,0.0907,0.0892,0.0755,0.0757,0.0748,0.0725,0.0709,0.0661,0.0577,0.0636,0.0629,0.0614,0.0498,0.0472,0.0462,0.0389,0.0408,0.0403,0.04,0.0398,0.0296,0.0297,0,0,0,0,0,0,0.0925,0.0899,0.0759,0.075,0.0822,0.0722,0.0704,0.0675,0.0577,0.0562,0.0615,0.0611,0.0481,0.0468,0.0457,0.0427,0.0402,0.0397,0.0394,0.0296,0.0297,0.0297,0,0,0,0,0,0,0.0929,0.0913,0.0765,0.0823,0.0802,0.0719,0.0688,0.0673,0.0647,0.0562,0.0546,0.0604,0.048,0.0464,0.0418,0.042,0.0395,0.039,0.0295,0.0296,0.0297,0.0368,0,0,0,0,0,0,0.0935,0.0915,0.0908,0.0823,0.0799,0.073,0.0688,0.0671,0.0638,0.0631,0.0547,0.0532,0.0478,0.0427,0.0413,0.0413,0.0386,0.0295,0.0296,0.0297,0.0365,0.0371,0.0376,0,0,0,0,0,0.0942,0.0933,0.0908,0.0892,0.0789,0.0731,0.0717,0.0656,0.0639,0.063,0.0575,0.0535,0.0423,0.0423,0.0407,0.0405,0.0294,0.0295,0.0296,0.0362,0.0369,0.0376,0,0,0,0,0,0,0.1019,0.0921,0.0892,0.0856,0.0803,0.0716,0.0704,0.0666,0.0615,0.0611,0.0536,0.0518,0.0479,0.0437,0.0439,0.038,0.0354,0.0352,0.0409,0.0415,0.0421,0.0431,0.0382,0,0,0,0,0,0.1033,0.0995,0.091,0.0886,0.0861,0.0787,0.076,0.0718,0.0658,0.0635,0.0577,0.052,0.0471,0.0441,0.0392,0.0358,0.0338,0.0349,0.0354,0.0359,0.0358,0.0336,0.0339,0.03,0.03,0.03,0,0,0.1059,0.1,0.0981,0.09,0.0854,0.0815,0.0769,0.073,0.0699,0.0628,0.0582,0.0537,0.0468,0.0428,0.0408,0.0392,0.0364,0.0361,0.0365,0.0361,0.0337,0.0341,0.0344,0.0301,0.0301,0.0301,0,0,0.1087,0.1039,0.1014,0.0968,0.0899,0.085,0.0844,0.0763,0.0731,0.0683,0.0629,0.0591,0.051,0.0462,0.0428,0.0437,0.0397,0.0423,0.0452,0.0431,0.0434,0.0436,0.0439,0.044,0.0422,0.0423,0.0423,0,0.1128,0.1068,0.1005,0.0969,0.0934,0.087,0.0842,0.0801,0.0718,0.0695,0.0679,0.0575,0.0524,0.0472,0.0474,0.0449,0.0438,0.0432,0.0439,0.0441,0.0442,0.0443,0.0444,0.0426,0.0426,0.0425,0.0425,0,0.1122,0.1081,0.1068,0.0992,0.0956,0.0924,0.0855,0.0826,0.0786,0.0739,0.069,0.0627,0.0563,0.0548,0.0509,0.0489,0.0482,0.0454,0.0425,0.045,0.045,0.045,0.0431,0.043,0.0429,0.0428,0,0,0.1194,0.1083,0.108,0.1043,0.0962,0.0928,0.0893,0.0832,0.0808,0.0753,0.0721,0.0653,0.0626,0.0587,0.0542,0.0524,0.0534,0.0497,0.0495,0.0506,0.0507,0.0528,0.053,0.0507,0.0507,0.0507,0.0512,0,0.1209,0.1145,0.1086,0.1042,0.1003,0.094,0.0909,0.0855,0.0809,0.0768,0.0716,0.0669,0.0638,0.0614,0.0593,0.0537,0.0533,0.0536,0.0475,0.0473,0.0494,0.053,0.0553,0.0561,0.0512,0.0512,0.0512,0,0.1219,0.1168,0.112,0.1041,0.1022,0.0996,0.0935,0.0897,0.0833,0.0801,0.0757,0.071,0.0668,0.0645,0.0585,0.0588,0.0559,0.0528,0.0527,0.0518,0.0494,0.0522,0.0562,0.0563,0.0511,0.0512,0.0512,0,0.1276,0.1195,0.1155,0.1126,0.1034,0.1016,0.0977,0.0913,0.0879,0.0825,0.0803,0.0744,0.0712,0.0667,0.0605,0.0594,0.0551,0.0523,0.0522,0.0523,0.0515,0.0516,0.0551,0.0498,0.0498,0.0498,0.0498,0,0.1298,0.1271,0.1179,0.1155,0.1122,0.1055,0.1024,0.0978,0.0922,0.0886,0.0828,0.0796,0.0716,0.0673,0.0624,0.0581,0.0567,0.0539,0.0526,0.0543,0.0547,0.0523,0.0521,0.0498,0.0498,0.0498,0.0498,0,0.1356,0.1294,0.1246,0.1163,0.1141,0.1121,0.1048,0.1021,0.0972,0.0928,0.0914,0.0836,0.0783,0.0716,0.0642,0.0608,0.0571,0.0551,0.0593,0.0585,0.0587,0.0588,0.0607,0.0606,0.0556,0.0556,0.0557,0,0.1374,0.1352,0.1266,0.1239,0.1202,0.1158,0.1124,0.1056,0.1023,0.0948,0.093,0.0873,0.0824,0.0741,0.0677,0.0619,0.0598,0.0608,0.0589,0.0607,0.0597,0.0599,0.0595,0.0613,0.0614,0.0615,0.0616,0,0.1413,0.1383,0.1337,0.128,0.1241,0.1193,0.1141,0.1122,0.1043,0.1008,0.0954,0.0916,0.084,0.0783,0.0717,0.0674,0.0631,0.0623,0.0619,0.0637,0.0661,0.0647,0.0606,0.0622,0.0622,0.0621,0.0621,0.0621,0.145,0.1427,0.1364,0.1314,0.1268,0.1222,0.1192,0.1139,0.1093,0.1027,0.099,0.0936,0.0871,0.0778,0.0737,0.0693,0.0677,0.0673,0.0671,0.0671,0.0676,0.0669,0.0681,0.0681,0.068,0.068,0.068,0,0.1485,0.1441,0.1396,0.1327,0.1287,0.1252,0.1193,0.1162,0.1116,0.106,0.1013,0.0949,0.0894,0.0826,0.0765,0.0743,0.0722,0.0729,0.073,0.072,0.0694,0.0703,0.0747,0.0747,0.0747,0.0747,0.0747,0.0747,0.1499,0.1458,0.142,0.1355,0.131,0.1259,0.1228,0.1184,0.1139,0.1072,0.1026,0.0982,0.092,0.0855,0.0802,0.0783,0.0763,0.0776,0.0752,0.0728,0.0722,0.0717,0.0724,0.0773,0.0773,0.0781,0.0781,0.0781]}]]